DW3762 Weather Reports


Display with metric or nautical units.
time (UTC)temp
F
wind
direction
speed
MPH
gust
MPH
rain 1hr
in
rain 24hr
in
rain mn
in
humidity
%
barometer
mb
20260503190112 80 5 1.0 6.0 0.00 0.00 0.00 49 1010.1
20260503184537 77 303 3.0 6.0 0.00 0.00 0.00 52 1010.3
20260503183007 76 343 3.0 7.0 0.00 0.00 0.00 54 1010.5
20260503181601 74 308 1.0 5.0 0.00 0.00 0.00 57 1010.6
20260503180014 73 284 3.0 8.0 0.00 0.00 0.00 59 1010.8
20260503174521 71 296 0.0 6.0 0.00 0.00 0.00 63 1010.9
20260503173017 70 274 2.0 8.0 0.00 0.00 0.00 65 1011.1
20260503171513 69 335 3.0 9.0 0.00 0.00 0.00 68 1011.2
20260503160107 61 360 1.0 5.0 0.00 0.00 0.00 83 1011.6
20260503081513 57 281 0.0 1.0 0.00 0.00 0.00 87 1011.9
20260503071506 59 281 0.0 0.0 0.00 0.00 0.00 84 1012.0
20260503060109 61 231 0.0 0.0 0.00 0.00 0.00 80 1012.0
20260503054540 62 231 0.0 3.0 0.00 0.00 0.00 80 1011.9
20260503053126 62 352 0.0 2.0 0.00 0.00 0.00 79 1011.6
20260503051551 63 352 0.0 4.0 0.00 0.00 0.00 78 1011.7
20260503050011 63 29 0.0 2.0 0.00 0.00 0.00 77 1011.9
20260503044611 63 67 0.0 4.0 0.00 0.00 0.00 76 1012.1
20260503043030 64 67 2.0 5.0 0.00 0.00 0.00 75 1012.1
20260503041629 64 98 0.0 2.0 0.00 0.00 0.00 74 1011.9
20260503040051 65 98 0.0 0.0 0.00 0.00 0.00 73 1011.9
20260503034513 65 98 0.0 3.0 0.00 0.00 0.00 72 1011.8
20260503033112 66 117 1.0 3.0 0.00 0.00 0.00 72 1011.8
20260503031545 66 238 0.0 1.0 0.00 0.00 0.00 71 1011.5
20260503030013 66 238 0.0 4.0 0.00 0.00 0.00 69 1011.5
20260503024602 67 114 1.0 10.0 0.00 0.00 0.00 68 1011.5
20260503023020 68 240 3.0 9.0 0.00 0.00 0.00 67 1011.6
20260503021619 70 173 3.0 16.0 0.00 0.00 0.00 64 1011.7
20260503020040 71 191 4.0 11.0 0.00 0.00 0.00 61 1011.2
20260503014520 73 242 2.0 8.0 0.00 0.00 0.00 58 1010.7
20260503013117 74 206 1.0 4.0 0.00 0.00 0.00 55 1010.7
20260503011542 75 204 3.0 5.0 0.00 0.00 0.00 54 1010.5
20260503010007 76 289 2.0 6.0 0.00 0.00 0.00 53 1010.5
20260503004606 76 333 2.0 6.0 0.00 0.00 0.00 52 1010.6
20260503003043 77 54 1.0 7.0 0.00 0.00 0.00 52 1010.6
20260503001624 77 296 4.0 8.0 0.00 0.00 0.00 51 1010.6
20260503000050 76 258 3.0 8.0 0.00 0.00 0.00 52 1010.8
20260502234525 76 213 1.0 10.0 0.00 0.00 0.00 51 1010.9
20260502233112 75 146 2.0 6.0 0.00 0.00 0.00 53 1011.1
20260502231532 75 319 2.0 10.0 0.00 0.00 0.00 53 1011.3
20260502230130 75 323 4.0 8.0 0.00 0.00 0.00 53 1011.5
20260502224545 74 275 2.0 6.0 0.00 0.00 0.00 53 1011.7
20260502223032 75 310 3.0 9.0 0.00 0.00 0.00 53 1011.9
20260502221517 75 318 4.0 9.0 0.00 0.00 0.00 53 1012.2
20260502220018 73 58 1.0 5.0 0.00 0.00 0.00 57 1012.4
20260502214511 73 334 3.0 8.0 0.00 0.00 0.00 54 1012.6
20260502213009 72 37 2.0 6.0 0.00 0.00 0.00 55 1012.9
20260502211505 71 52 4.0 8.0 0.00 0.00 0.00 59 1013.1
20260502210006 70 310 2.0 6.0 0.00 0.00 0.00 60 1013.2
20260502204558 69 207 3.0 7.0 0.00 0.00 0.00 59 1013.7
20260502203054 67 59 1.0 5.0 0.00 0.00 0.00 65 1013.9
20260502201549 65 325 2.0 5.0 0.00 0.00 0.00 65 1014.1
20260502200051 65 280 0.0 7.0 0.00 0.00 0.00 66 1014.2
20260502194545 64 312 1.0 10.0 0.00 0.00 0.00 66 1014.2
20260502193045 63 275 5.0 9.0 0.00 0.00 0.00 69 1014.5
20260502191540 62 307 5.0 8.0 0.00 0.00 0.00 71 1014.6